Tracking 27380 objects as of 6-Jun-2023
HD Live streaming from Space Station
objects crossing your sky now

STARLINK-2288

Track STARLINK-2288 now!
10-day predictions
STARLINK-2288 is classified as:


NORAD ID: 48034
Int'l Code: 2021-024BK
Perigee: 553.6 km
Apogee: 555.1 km
Inclination: 53.1 °
Period: 95.6 minutes
Semi major axis: 6925 km
RCS: Unknown
Launch date: March 24, 2021
Source: United States (US)
Launch site: AIR FORCE EASTERN TEST RANGE (AFETR)
Your satellite tracking list
Your tracking list is empty




NASA's NSSDC Master Catalog

Two Line Element Set (TLE):
1 48034U 21024BK  23157.42942926  .00002674  00000-0  19832-3 0  9999
2 48034  53.0523 173.3823 0001066  78.0399 282.0709 15.06407377122817
Source of the keplerian elements: AFSPC